SCP
0 0 0 0 0 0 -0 -0 0 0 0 0 0 0 0 -0 -0 -0 -0 -0 -0 -1 -0 -0 -1 -1 -1 -1 -1 -1 -0 -0 -0 -0 -0 -0 -0 -0 -0 -0 -0 -0 -0 -0 -0 0 0 0 0
0 0 0 0 0 0 -0 -0 0 0 0 0 0 0 0 0 0 0 -0 0 -0 -1 -0 -0 -1 -1 -1 -1 -1 -0 -0 -0 -0 -0 -0 -0 -0 -0 -0 -0 -0 -0 -0 -0 0 0 0 0 0
0 0 0 0 0 0 -0 0 0 0 0 0 0 0 0 0 0 -0 -0 -0 -0 -0 -0 -0 -1 -1 -1 -1 -0 -0 -0 -0 -0 -0 -0 -0 -0 -0 -0 -0 -0 -0 -0 -0 0 0 0 0 0
0 0 0 0 0 0 0 0 0 0 0 0 0 0 0 0 0 -0 0 -0 -0 -0 -0 -1 -1 -1 -1 -1 -1 -0 -0 -0 -0 -0 -0 -0 -0 -0 -0 -0 -0 -0 -0 -0 0 0 0 -0 -0
0 0 0 0 -0 -0 0 0 0 0 0 0 0 0 0 1 0 0 0 0 0 0 0 -0 -1 -0 -1 -1 -1 -0 -0 -0 -0 -0 -0 -0 -0 -0 0 0 0 0 0 0 0 0 -0 -0 -0
0 0 0 0 0 -0 -0 -0 0 0 0 0 0 0 0 1 0 0 0 0 0 0 0 0 -0 -0 -0 -0 -0 -0 -0 -0 -0 -0 -0 -0 -0 0 0 0 0 0 0 0 -0 -0 -0 -0 -0
0 0 0 0 0 -0 -0 -0 0 0 0 0 0 0 0 1 1 0 0 0 0 0 1 1 1 0 0 -0 -0 -0 -0 -0 -0 -0 -0 0 0 0 0 0 0 0 0 -0 -0 -0 -0 -0 -0
0 0 0 0 0 -0 0 0 0 0 0 0 0 1 1 0 1 1 0 0 0 1 1 1 1 1 1 1 0 0 -0 -0 -0 -0 0 0 0 0 0 0 0 0 0 0 -0 -0 -0 -0 -0
0 0 0 0 0 0 0 0 0 0 0 0 0 0 0 2 2 1 1 1 1 0 1 1 1 1 1 1 0 0 0 0 0 0 0 0 0 0 0 0 0 0 0 0 -0 -0 -0 -0 -0
0 0 0 0 0 0 0 0 0 0 0 0 0 0 2 2 2 1 1 1 0 0 0 1 1 1 1 1 1 1 0 1 1 1 1 0 0 0 0 0 0 0 0 0 0 0 -0 -0 -0
0 0 0 0 0 0 0 0 0 0 0 0 0 0 0 1 1 1 1 1 0 0 0 0 1 1 1 1 2 2 1 1 1 1 1 0 0 0 0 0 0 0 0 0 0 0 0 0 0
0 0 0 0 0 0 0 0 0 0 0 0 0 0 0 0 0 1 1 1 1 1 0 1 1 1 1 2 2 1 2 2 1 1 1 0 0 0 0 0 0 0 0 0 0 0 0 0 0
0 0 0 0 0 0 0 0 0 0 0 0 0 0 0 0 0 0 0 1 1 1 1 1 1 1 1 2 2 2 2 2 1 1 1 0 0 0 0 0 0 0 0 0 0 0 0 0 0
0 0 0 0 0 0 0 0 0 0 0 0 0 0 0 0 0 0 0 0 1 2 2 1 1 1 2 2 1 1 2 1 1 1 1 0 0 0 0 0 0 0 0 0 0 0 0 0 0
0 0 0 0 0 0 0 0 0 0 0 0 0 0 0 0 0 0 0 0 0 1 2 2 2 2 1 2 2 2 2 2 1 1 1 1 0 0 0 0 0 0 0 0 0 0 0 0 0
0 0 0 0 0 0 0 0 0 0 0 0 0 0 0 0 0 0 0 0 0 1 1 1 2 1 1 2 2 2 1 2 1 1 1 1 0 0 0 0 0 0 0 0 0 0 0 0 0
0 0 0 0 0 0 0 0 0 0 0 0 0 0 0 0 0 0 0 0 0 0 1 1 1 1 0 1 1 1 0 1 1 0 0 1 0 0 0 0 0 0 0 0 0 0 0 0 0
0 0 0 0 0 0 0 0 0 0 0 0 0 0 0 0 0 0 0 0 0 0 0 0 0 0 0 0 0 0 0 0 0 0 0 0 0 0 0 0 0 0 0 0 0 0 0 0 0
0 0 0 0 0 0 0 0 0 0 0 0 0 0 0 0 0 0 0 0 0 0 0 0 0 0 1 1 0 0 0 0 0 0 0 0 0 0 0 0 0 0 0 0 0 0 0 0 0
0 0 0 0 0 0 0 0 0 0 0 0 0 0 0 0 0 0 0 0 0 0 0 0 0 0 1 1 1 0 0 0 0 0 0 0 0 0 0 0 0 0 0 0 0 0 0 0 0
0 0 0 0 0 0 0 0 0 0 0 0 0 0 0 0 0 0 0 0 0 0 0 1 0 1 1 1 0 0 0 0 0 0 0 0 0 0 0 0 0 0 0 0 0 0 0 0 0
0 0 0 0 0 0 0 0 0 0 0 0 0 0 0 0 0 0 0 0 0 0 1 1 0 1 0 0 0 1 0 0 0 0 0 0 0 0 0 0 0 0 0 0 0 0 0 0 0
0 0 0 0 0 0 0 0 0 0 0 0 0 0 0 0 0 0 0 0 1 1 1 1 0 0 0 0 0 0 0 0 0 0 0 0 0 0 0 0 0 0 0 0 0 0 0 0 0
0 0 0 0 0 0 0 0 0 0 0 0 0 0 0 0 0 1 2 2 1 1 1 1 0 0 0 0 0 0 0 0 0 0 0 0 0 0 0 0 0 0 0 0 0 0 0 0 0
0 0 0 0 0 0 0 0 0 0 0 0 0 0 0 0 0 1 1 1 1 1 1 1 1 0 0 0 0 0 0 0 0 0 0 0 0 0 0 0 0 0 0 0 0 0 0 0 0
0 0 0 0 0 0 0 0 0 0 0 0 0 0 0 0 1 1 1 0 0 0 1 0 0 0 0 0 0 0 0 0 0 0 0 0 0 0 0 0 0 0 0 0 0 0 0 0 0
0 0 0 0 0 0 0 0 0 0 0 0 0 0 0 0 0 0 0 0 0 0 0 0 0 0 0 0 0 0 0 0 0 0 0 0 0 0 0 0 0 0 0 0 0 0 0 0 0
0 0 0 0 0 0 0 0 0 0 0 0 0 0 0 0 0 0 0 0 0 0 0 0 0 0 0 0 0 0 0 0 0 0 0 0 0 0 0 0 0 0 0 0 0 0 0 0 0
0 0 0 0 0 0 0 0 0 0 0 0 0 0 0 0 0 0 0 0 0 0 0 0 0 0 0 0 0 0 0 0 0 0 0 0 0 0 0 0 0 0 0 0 0 0 0 0 -0
0 0 0 0 0 0 0 0 0 0 0 0 0 0 0 0 0 0 0 0 0 0 0 0 0 0 0 0 0 0 0 0 0 0 0 0 0 0 0 0 0 0 0 0 0 0 0 0 0
Wind_Speed_500mb
17 14 9 5 6 8 8 11 6 7 12 36 20 7 15 5 4 7 33 40 48 64 70 68 61 56 51 47 47 45 43 41 41 40 39 38 39 41 44 38 34 31 30 30 30 28 28 30 34
10 7 5 3 8 1 11 9 21 7 17 39 9 12 2 6 5 19 49 46 45 61 69 71 65 58 53 49 46 44 40 39 43 43 42 43 46 47 42 36 32 29 28 28 29 27 27 29 32
5 10 6 7 7 13 11 11 3 15 27 27 10 15 7 6 13 40 27 52 58 65 67 71 68 61 55 49 44 41 38 37 44 45 46 49 51 48 42 36 32 29 27 27 27 27 27 28 32
7 8 4 6 22 14 14 8 13 23 25 13 18 15 12 12 27 23 42 42 57 64 67 69 69 63 56 50 45 41 37 36 42 44 48 52 51 46 40 34 30 26 25 25 25 26 27 29 30
13 7 4 6 17 12 3 8 24 20 20 51 20 20 14 19 18 26 38 45 59 64 67 68 68 64 57 52 47 42 38 36 40 44 47 50 48 44 38 32 27 24 23 22 23 24 25 27 29
6 6 4 15 16 7 5 8 8 14 34 48 12 7 13 21 26 30 37 45 53 58 64 68 67 64 59 53 49 45 42 37 37 41 44 47 46 42 37 32 28 24 22 22 22 23 25 28 28
9 7 11 7 10 11 6 10 6 11 17 26 16 14 12 30 32 35 42 43 48 56 61 67 68 65 61 55 50 48 45 42 37 36 40 42 42 40 37 31 26 23 22 22 21 21 22 24 27
9 7 6 11 9 13 4 4 5 10 16 48 9 13 12 48 46 52 53 51 49 54 60 63 67 67 64 60 54 49 47 45 42 37 36 39 41 39 37 34 30 26 23 23 23 23 23 24 25
10 3 11 12 15 10 1 7 10 28 25 32 25 17 25 58 56 58 59 56 52 56 60 61 64 66 65 62 59 55 50 47 45 42 40 39 40 41 40 37 32 28 25 23 22 22 23 24 25
12 9 19 13 10 4 3 5 17 16 27 24 29 37 23 50 55 58 59 57 53 51 59 60 60 62 64 63 62 59 58 57 55 51 46 40 36 34 37 37 36 33 29 26 24 25 26 26 24
12 15 13 9 21 25 18 9 25 15 16 19 12 23 26 33 47 51 52 46 33 41 52 53 55 61 64 67 68 67 65 63 59 55 50 44 39 35 34 35 37 37 35 32 29 28 27 25 25
8 21 37 15 36 23 9 12 9 31 36 33 27 14 7 11 22 53 52 54 48 51 58 58 59 62 66 69 70 70 69 67 65 62 55 51 44 38 35 35 36 41 39 37 33 30 28 28 28
11 7 18 45 54 51 52 32 19 44 57 53 39 26 26 23 16 22 29 35 46 56 63 65 65 61 64 70 71 69 67 66 63 63 60 54 48 44 40 38 39 42 44 42 37 34 31 30 30
11 43 48 58 53 35 17 30 18 18 43 44 47 44 44 40 36 27 29 27 24 40 66 68 67 68 65 62 64 66 65 59 56 59 57 54 52 48 47 44 42 42 44 42 37 30 30 36 37
45 21 15 18 21 20 30 38 38 44 50 55 49 44 44 44 46 47 40 34 26 26 30 55 74 73 71 64 54 61 61 54 52 52 51 52 52 53 51 47 46 42 40 39 34 29 28 32 30
8 12 29 9 18 13 21 48 18 26 41 46 43 47 54 57 52 51 47 42 41 34 38 31 49 73 72 70 59 55 57 53 48 46 45 53 55 54 53 51 47 41 43 40 37 37 33 38 40
9 8 8 6 17 10 22 17 13 41 46 47 53 56 60 72 60 51 50 52 49 46 37 42 40 55 71 74 60 57 55 51 49 44 43 46 48 51 51 49 49 46 48 48 43 40 44 47 47
13 7 9 12 9 15 23 26 18 34 27 42 52 58 60 63 64 51 41 42 53 54 42 41 44 44 67 77 64 57 50 52 53 50 47 49 47 43 43 42 46 47 51 52 45 47 57 61 53
13 11 14 3 13 18 17 13 18 27 31 33 54 58 62 66 53 44 41 43 54 53 44 45 53 57 61 77 66 60 57 60 62 59 54 54 48 46 45 46 44 47 60 52 44 58 62 67 57
27 28 34 7 7 6 9 20 19 19 21 39 51 62 73 67 60 50 55 54 54 55 49 46 51 51 66 70 74 67 64 59 62 57 56 55 54 50 55 57 51 51 58 66 61 63 65 66 64
25 35 19 8 8 11 7 18 13 23 25 55 58 67 72 70 71 53 54 56 59 56 53 46 48 49 67 79 78 72 63 61 61 60 59 53 47 47 56 53 45 47 62 62 61 70 78 76 78
29 12 14 8 5 9 6 11 12 16 26 19 49 49 68 59 46 41 34 47 57 56 49 38 34 48 61 73 79 75 70 67 64 56 48 52 52 54 58 50 46 48 48 54 59 60 65 66 56
19 7 10 10 13 9 15 4 17 5 16 13 16 43 35 33 39 46 42 39 45 34 27 33 36 47 64 69 72 69 64 64 46 55 54 50 64 61 56 56 62 52 45 47 48 51 48 48 40
23 22 9 11 3 6 31 19 11 8 14 2 3 20 29 38 39 39 34 29 25 20 14 17 25 34 44 51 52 67 55 50 47 53 59 66 58 63 63 66 47 43 47 48 49 46 44 48 53
22 9 2 6 9 22 9 11 18 10 9 6 8 27 40 47 50 51 49 44 41 38 34 29 34 35 40 40 44 47 46 47 44 45 45 43 54 51 48 47 49 59 52 55 53 53 43 39 44
24 20 8 10 9 21 6 14 7 14 20 10 6 46 43 60 65 59 52 49 45 42 36 31 27 26 27 30 33 38 44 41 41 42 42 41 35 37 36 38 45 54 58 60 61 64 62 60 57
10 36 28 2 4 3 6 6 4 25 20 19 41 48 26 55 70 71 63 55 45 33 22 14 17 20 19 18 19 26 28 30 32 37 44 43 47 56 53 54 52 42 44 37 47 51 71 64 59
29 15 10 8 8 3 7 4 1 11 16 13 27 11 48 58 67 69 64 60 51 41 31 19 16 11 9 15 13 11 14 18 24 31 35 39 45 44 49 51 47 36 27 31 40 50 50 60 54
13 13 5 10 9 11 6 1 5 2 9 12 15 22 33 59 65 70 72 64 58 53 47 42 33 31 31 28 26 17 15 15 15 15 19 14 13 12 8 12 16 17 22 32 28 24 36 61 70
21 17 28 9 10 6 9 3 1 6 12 23 22 29 47 66 69 74 73 69 63 57 49 46 44 39 37 34 32 30 26 25 22 21 24 21 17 14 6 3 1 3 10 14 20 24 26 38 44
Wind_Direction_500mb
271 280 273 303 43 59 262 255 262 304 340 321 278 192 191 328 168 208 144 156 169 172 170 171 171 169 163 162 164 164 165 168 169 167 162 159 158 153 150 149 145 143 141 140 139 135 127 124 124
256 241 192 113 104 80 268 236 237 155 308 328 3 202 140 266 176 155 154 164 170 173 172 173 173 172 169 167 167 166 164 164 164 163 162 162 159 156 155 153 150 148 147 147 144 141 137 135 134
238 185 165 128 159 201 225 233 186 298 317 305 302 278 194 210 186 158 170 163 172 176 175 175 175 176 174 172 169 167 163 162 163 164 164 163 162 161 160 159 157 157 156 153 151 149 149 147 147
171 156 79 119 231 248 186 236 340 342 341 85 16 307 272 152 156 157 163 168 171 177 177 178 177 178 179 177 174 171 166 164 166 166 165 165 165 166 165 163 161 162 161 160 160 160 160 160 160
173 139 105 253 255 253 139 295 309 305 302 298 301 271 264 189 175 173 165 173 175 178 179 181 181 180 182 182 179 177 174 169 170 171 170 170 170 170 170 169 169 169 169 168 168 168 167 171 175
156 128 105 224 237 284 308 260 295 286 297 304 304 181 220 203 194 176 171 170 177 182 181 182 184 183 185 187 186 184 182 178 175 177 176 177 178 178 178 177 177 175 176 178 177 177 175 177 183
150 108 215 212 272 296 226 217 203 272 280 297 293 149 258 195 194 180 171 171 179 187 185 185 187 187 187 190 193 192 190 188 184 182 183 184 185 185 186 186 185 184 185 186 187 187 185 184 188
217 113 247 227 211 272 264 204 276 318 287 323 344 188 218 186 185 180 171 176 182 190 191 189 190 191 190 192 195 200 198 197 194 190 190 192 193 193 195 196 194 194 196 196 197 196 194 194 194
205 109 227 225 166 233 166 45 313 316 289 325 8 224 237 178 181 177 174 179 186 192 194 195 195 196 197 197 198 199 202 206 205 201 200 199 199 201 203 205 206 207 206 209 209 209 212 211 208
173 174 224 208 205 280 280 21 338 319 318 313 9 69 137 177 179 181 179 182 187 190 195 199 202 203 204 204 205 205 205 205 205 208 209 208 208 209 213 215 215 216 217 218 218 218 222 225 225
203 219 239 223 233 265 268 274 285 273 292 280 335 20 76 177 186 195 194 199 202 200 193 199 204 208 209 209 209 209 211 211 209 210 212 214 215 216 222 226 227 226 225 227 228 229 231 234 236
228 231 235 262 255 261 258 262 264 275 257 299 288 304 287 158 210 218 208 207 207 207 204 203 204 208 211 214 213 214 215 215 213 213 214 216 219 224 229 233 236 235 235 236 239 242 243 242 240
218 241 239 243 254 260 272 259 254 261 268 280 267 265 268 264 206 194 219 229 237 229 216 210 208 209 213 217 217 218 221 222 219 217 216 219 223 229 235 240 242 240 236 238 243 251 255 253 252
225 219 237 247 254 257 272 279 252 259 274 271 264 261 267 269 261 244 229 229 234 233 232 225 219 216 215 220 222 225 226 228 225 222 223 227 230 233 238 240 246 247 240 239 243 254 256 255 251
237 266 275 235 236 244 259 279 248 261 261 258 254 266 270 267 271 266 264 260 234 215 223 236 230 223 220 220 221 226 227 226 225 226 227 233 237 239 240 242 243 246 239 234 235 243 255 255 251
270 169 244 217 179 221 169 256 292 280 234 234 248 261 271 274 275 274 269 265 261 238 217 217 233 229 222 220 220 220 224 225 228 225 228 233 235 238 238 238 240 237 234 232 234 243 248 253 247
263 244 211 277 196 206 184 262 254 253 232 239 257 259 262 270 274 271 272 264 260 256 233 213 214 231 223 218 216 215 218 219 218 222 228 228 229 234 234 236 237 232 232 231 232 247 251 250 252
235 209 208 193 215 203 243 253 258 254 250 249 259 270 265 261 264 271 253 250 260 257 246 221 210 218 220 215 215 210 215 218 222 223 225 216 221 222 227 232 232 232 238 238 241 255 249 251 253
296 278 248 192 247 197 240 257 253 258 256 250 255 259 268 264 264 256 250 255 259 259 243 212 214 213 216 212 209 208 211 215 217 219 222 224 229 232 235 238 239 237 250 250 251 249 251 256 250
239 261 262 291 259 215 278 271 259 247 249 243 247 252 258 257 258 254 253 253 257 259 248 218 211 219 217 217 213 217 216 221 222 224 224 231 233 236 241 244 245 250 249 254 255 258 260 258 256
218 223 240 218 314 280 291 290 286 271 245 248 248 252 257 254 254 255 251 249 248 253 249 230 215 220 220 215 213 216 222 221 221 228 229 232 236 250 246 247 254 255 256 262 262 268 269 268 265
235 205 224 227 252 236 129 280 282 276 256 220 232 239 251 249 249 233 230 229 234 241 250 236 226 210 222 219 214 220 224 227 234 240 255 248 255 257 255 255 257 258 271 272 274 273 277 275 271
246 209 228 212 233 264 254 290 261 331 265 240 213 229 246 217 213 212 217 223 227 230 222 209 209 215 222 221 223 224 231 235 249 258 257 265 256 257 256 264 261 272 278 277 276 281 272 271 262
234 269 335 349 126 250 243 198 279 232 223 202 19 230 189 159 166 167 160 157 162 132 147 180 200 210 207 214 220 227 228 242 259 263 262 268 256 265 279 292 269 271 274 269 271 269 265 260 255
212 143 123 226 194 234 205 181 226 289 269 174 209 159 149 147 144 140 142 144 142 146 152 163 186 189 202 210 223 231 239 249 258 260 261 270 261 280 283 280 273 279 270 270 278 270 256 254 255
206 187 178 161 199 231 198 224 234 285 266 140 131 145 137 126 129 132 139 144 146 154 161 175 184 196 215 226 236 243 248 254 258 265 268 278 284 282 277 279 273 266 267 267 270 262 259 257 258
225 184 200 197 19 134 213 250 184 5 6 102 108 113 113 116 118 113 110 110 118 145 146 171 196 206 209 215 246 258 269 269 272 274 280 273 283 282 274 275 279 279 280 280 271 264 260 259 264
208 154 204 198 205 182 260 90 48 346 329 350 94 75 131 121 119 116 112 109 107 107 107 107 107 126 173 216 239 261 281 297 298 294 291 285 283 279 268 272 279 283 276 263 271 272 266 257 234
188 186 125 156 172 179 165 10 274 261 351 38 61 98 129 124 121 119 116 113 111 109 106 103 98 95 94 93 89 81 82 62 58 53 58 57 50 34 342 298 296 297 283 277 283 284 262 248 248
199 184 180 172 216 211 148 177 139 106 50 50 33 89 121 123 121 122 120 121 118 115 112 111 110 109 106 104 104 97 94 94 92 92 92 86 67 57 82 105 19 256 260 276 268 293 275 257 265
Wind_Speed_850mb
17 14 9 5 6 8 8 11 6 7 12 36 20 7 15 5 4 7 33 40 48 64 70 68 61 56 51 47 47 45 43 41 41 40 39 38 39 41 44 38 34 31 30 30 30 28 28 30 34
10 7 5 3 8 1 11 9 21 7 17 39 9 12 2 6 5 19 49 46 45 61 69 71 65 58 53 49 46 44 40 39 43 43 42 43 46 47 42 36 32 29 28 28 29 27 27 29 32
5 10 6 7 7 13 11 11 3 15 27 27 10 15 7 6 13 40 27 52 58 65 67 71 68 61 55 49 44 41 38 37 44 45 46 49 51 48 42 36 32 29 27 27 27 27 27 28 32
7 8 4 6 22 14 14 8 13 23 25 13 18 15 12 12 27 23 42 42 57 64 67 69 69 63 56 50 45 41 37 36 42 44 48 52 51 46 40 34 30 26 25 25 25 26 27 29 30
13 7 4 6 17 12 3 8 24 20 20 51 20 20 14 19 18 26 38 45 59 64 67 68 68 64 57 52 47 42 38 36 40 44 47 50 48 44 38 32 27 24 23 22 23 24 25 27 29
6 6 4 15 16 7 5 8 8 14 34 48 12 7 13 21 26 30 37 45 53 58 64 68 67 64 59 53 49 45 42 37 37 41 44 47 46 42 37 32 28 24 22 22 22 23 25 28 28
9 7 11 7 10 11 6 10 6 11 17 26 16 14 12 30 32 35 42 43 48 56 61 67 68 65 61 55 50 48 45 42 37 36 40 42 42 40 37 31 26 23 22 22 21 21 22 24 27
9 7 6 11 9 13 4 4 5 10 16 48 9 13 12 48 46 52 53 51 49 54 60 63 67 67 64 60 54 49 47 45 42 37 36 39 41 39 37 34 30 26 23 23 23 23 23 24 25
10 3 11 12 15 10 1 7 10 28 25 32 25 17 25 58 56 58 59 56 52 56 60 61 64 66 65 62 59 55 50 47 45 42 40 39 40 41 40 37 32 28 25 23 22 22 23 24 25
12 9 19 13 10 4 3 5 17 16 27 24 29 37 23 50 55 58 59 57 53 51 59 60 60 62 64 63 62 59 58 57 55 51 46 40 36 34 37 37 36 33 29 26 24 25 26 26 24
12 15 13 9 21 25 18 9 25 15 16 19 12 23 26 33 47 51 52 46 33 41 52 53 55 61 64 67 68 67 65 63 59 55 50 44 39 35 34 35 37 37 35 32 29 28 27 25 25
8 21 37 15 36 23 9 12 9 31 36 33 27 14 7 11 22 53 52 54 48 51 58 58 59 62 66 69 70 70 69 67 65 62 55 51 44 38 35 35 36 41 39 37 33 30 28 28 28
11 7 18 45 54 51 52 32 19 44 57 53 39 26 26 23 16 22 29 35 46 56 63 65 65 61 64 70 71 69 67 66 63 63 60 54 48 44 40 38 39 42 44 42 37 34 31 30 30
11 43 48 58 53 35 17 30 18 18 43 44 47 44 44 40 36 27 29 27 24 40 66 68 67 68 65 62 64 66 65 59 56 59 57 54 52 48 47 44 42 42 44 42 37 30 30 36 37
45 21 15 18 21 20 30 38 38 44 50 55 49 44 44 44 46 47 40 34 26 26 30 55 74 73 71 64 54 61 61 54 52 52 51 52 52 53 51 47 46 42 40 39 34 29 28 32 30
8 12 29 9 18 13 21 48 18 26 41 46 43 47 54 57 52 51 47 42 41 34 38 31 49 73 72 70 59 55 57 53 48 46 45 53 55 54 53 51 47 41 43 40 37 37 33 38 40
9 8 8 6 17 10 22 17 13 41 46 47 53 56 60 72 60 51 50 52 49 46 37 42 40 55 71 74 60 57 55 51 49 44 43 46 48 51 51 49 49 46 48 48 43 40 44 47 47
13 7 9 12 9 15 23 26 18 34 27 42 52 58 60 63 64 51 41 42 53 54 42 41 44 44 67 77 64 57 50 52 53 50 47 49 47 43 43 42 46 47 51 52 45 47 57 61 53
13 11 14 3 13 18 17 13 18 27 31 33 54 58 62 66 53 44 41 43 54 53 44 45 53 57 61 77 66 60 57 60 62 59 54 54 48 46 45 46 44 47 60 52 44 58 62 67 57
27 28 34 7 7 6 9 20 19 19 21 39 51 62 73 67 60 50 55 54 54 55 49 46 51 51 66 70 74 67 64 59 62 57 56 55 54 50 55 57 51 51 58 66 61 63 65 66 64
25 35 19 8 8 11 7 18 13 23 25 55 58 67 72 70 71 53 54 56 59 56 53 46 48 49 67 79 78 72 63 61 61 60 59 53 47 47 56 53 45 47 62 62 61 70 78 76 78
29 12 14 8 5 9 6 11 12 16 26 19 49 49 68 59 46 41 34 47 57 56 49 38 34 48 61 73 79 75 70 67 64 56 48 52 52 54 58 50 46 48 48 54 59 60 65 66 56
19 7 10 10 13 9 15 4 17 5 16 13 16 43 35 33 39 46 42 39 45 34 27 33 36 47 64 69 72 69 64 64 46 55 54 50 64 61 56 56 62 52 45 47 48 51 48 48 40
23 22 9 11 3 6 31 19 11 8 14 2 3 20 29 38 39 39 34 29 25 20 14 17 25 34 44 51 52 67 55 50 47 53 59 66 58 63 63 66 47 43 47 48 49 46 44 48 53
22 9 2 6 9 22 9 11 18 10 9 6 8 27 40 47 50 51 49 44 41 38 34 29 34 35 40 40 44 47 46 47 44 45 45 43 54 51 48 47 49 59 52 55 53 53 43 39 44
24 20 8 10 9 21 6 14 7 14 20 10 6 46 43 60 65 59 52 49 45 42 36 31 27 26 27 30 33 38 44 41 41 42 42 41 35 37 36 38 45 54 58 60 61 64 62 60 57
10 36 28 2 4 3 6 6 4 25 20 19 41 48 26 55 70 71 63 55 45 33 22 14 17 20 19 18 19 26 28 30 32 37 44 43 47 56 53 54 52 42 44 37 47 51 71 64 59
29 15 10 8 8 3 7 4 1 11 16 13 27 11 48 58 67 69 64 60 51 41 31 19 16 11 9 15 13 11 14 18 24 31 35 39 45 44 49 51 47 36 27 31 40 50 50 60 54
13 13 5 10 9 11 6 1 5 2 9 12 15 22 33 59 65 70 72 64 58 53 47 42 33 31 31 28 26 17 15 15 15 15 19 14 13 12 8 12 16 17 22 32 28 24 36 61 70
21 17 28 9 10 6 9 3 1 6 12 23 22 29 47 66 69 74 73 69 63 57 49 46 44 39 37 34 32 30 26 25 22 21 24 21 17 14 6 3 1 3 10 14 20 24 26 38 44
Wind_Direction_850mb
271 280 273 303 43 59 262 255 262 304 340 321 278 192 191 328 168 208 144 156 169 172 170 171 171 169 163 162 164 164 165 168 169 167 162 159 158 153 150 149 145 143 141 140 139 135 127 124 124
256 241 192 113 104 80 268 236 237 155 308 328 3 202 140 266 176 155 154 164 170 173 172 173 173 172 169 167 167 166 164 164 164 163 162 162 159 156 155 153 150 148 147 147 144 141 137 135 134
238 185 165 128 159 201 225 233 186 298 317 305 302 278 194 210 186 158 170 163 172 176 175 175 175 176 174 172 169 167 163 162 163 164 164 163 162 161 160 159 157 157 156 153 151 149 149 147 147
171 156 79 119 231 248 186 236 340 342 341 85 16 307 272 152 156 157 163 168 171 177 177 178 177 178 179 177 174 171 166 164 166 166 165 165 165 166 165 163 161 162 161 160 160 160 160 160 160
173 139 105 253 255 253 139 295 309 305 302 298 301 271 264 189 175 173 165 173 175 178 179 181 181 180 182 182 179 177 174 169 170 171 170 170 170 170 170 169 169 169 169 168 168 168 167 171 175
156 128 105 224 237 284 308 260 295 286 297 304 304 181 220 203 194 176 171 170 177 182 181 182 184 183 185 187 186 184 182 178 175 177 176 177 178 178 178 177 177 175 176 178 177 177 175 177 183
150 108 215 212 272 296 226 217 203 272 280 297 293 149 258 195 194 180 171 171 179 187 185 185 187 187 187 190 193 192 190 188 184 182 183 184 185 185 186 186 185 184 185 186 187 187 185 184 188
217 113 247 227 211 272 264 204 276 318 287 323 344 188 218 186 185 180 171 176 182 190 191 189 190 191 190 192 195 200 198 197 194 190 190 192 193 193 195 196 194 194 196 196 197 196 194 194 194
205 109 227 225 166 233 166 45 313 316 289 325 8 224 237 178 181 177 174 179 186 192 194 195 195 196 197 197 198 199 202 206 205 201 200 199 199 201 203 205 206 207 206 209 209 209 212 211 208
173 174 224 208 205 280 280 21 338 319 318 313 9 69 137 177 179 181 179 182 187 190 195 199 202 203 204 204 205 205 205 205 205 208 209 208 208 209 213 215 215 216 217 218 218 218 222 225 225
203 219 239 223 233 265 268 274 285 273 292 280 335 20 76 177 186 195 194 199 202 200 193 199 204 208 209 209 209 209 211 211 209 210 212 214 215 216 222 226 227 226 225 227 228 229 231 234 236
228 231 235 262 255 261 258 262 264 275 257 299 288 304 287 158 210 218 208 207 207 207 204 203 204 208 211 214 213 214 215 215 213 213 214 216 219 224 229 233 236 235 235 236 239 242 243 242 240
218 241 239 243 254 260 272 259 254 261 268 280 267 265 268 264 206 194 219 229 237 229 216 210 208 209 213 217 217 218 221 222 219 217 216 219 223 229 235 240 242 240 236 238 243 251 255 253 252
225 219 237 247 254 257 272 279 252 259 274 271 264 261 267 269 261 244 229 229 234 233 232 225 219 216 215 220 222 225 226 228 225 222 223 227 230 233 238 240 246 247 240 239 243 254 256 255 251
237 266 275 235 236 244 259 279 248 261 261 258 254 266 270 267 271 266 264 260 234 215 223 236 230 223 220 220 221 226 227 226 225 226 227 233 237 239 240 242 243 246 239 234 235 243 255 255 251
270 169 244 217 179 221 169 256 292 280 234 234 248 261 271 274 275 274 269 265 261 238 217 217 233 229 222 220 220 220 224 225 228 225 228 233 235 238 238 238 240 237 234 232 234 243 248 253 247
263 244 211 277 196 206 184 262 254 253 232 239 257 259 262 270 274 271 272 264 260 256 233 213 214 231 223 218 216 215 218 219 218 222 228 228 229 234 234 236 237 232 232 231 232 247 251 250 252
235 209 208 193 215 203 243 253 258 254 250 249 259 270 265 261 264 271 253 250 260 257 246 221 210 218 220 215 215 210 215 218 222 223 225 216 221 222 227 232 232 232 238 238 241 255 249 251 253
296 278 248 192 247 197 240 257 253 258 256 250 255 259 268 264 264 256 250 255 259 259 243 212 214 213 216 212 209 208 211 215 217 219 222 224 229 232 235 238 239 237 250 250 251 249 251 256 250
239 261 262 291 259 215 278 271 259 247 249 243 247 252 258 257 258 254 253 253 257 259 248 218 211 219 217 217 213 217 216 221 222 224 224 231 233 236 241 244 245 250 249 254 255 258 260 258 256
218 223 240 218 314 280 291 290 286 271 245 248 248 252 257 254 254 255 251 249 248 253 249 230 215 220 220 215 213 216 222 221 221 228 229 232 236 250 246 247 254 255 256 262 262 268 269 268 265
235 205 224 227 252 236 129 280 282 276 256 220 232 239 251 249 249 233 230 229 234 241 250 236 226 210 222 219 214 220 224 227 234 240 255 248 255 257 255 255 257 258 271 272 274 273 277 275 271
246 209 228 212 233 264 254 290 261 331 265 240 213 229 246 217 213 212 217 223 227 230 222 209 209 215 222 221 223 224 231 235 249 258 257 265 256 257 256 264 261 272 278 277 276 281 272 271 262
234 269 335 349 126 250 243 198 279 232 223 202 19 230 189 159 166 167 160 157 162 132 147 180 200 210 207 214 220 227 228 242 259 263 262 268 256 265 279 292 269 271 274 269 271 269 265 260 255
212 143 123 226 194 234 205 181 226 289 269 174 209 159 149 147 144 140 142 144 142 146 152 163 186 189 202 210 223 231 239 249 258 260 261 270 261 280 283 280 273 279 270 270 278 270 256 254 255
206 187 178 161 199 231 198 224 234 285 266 140 131 145 137 126 129 132 139 144 146 154 161 175 184 196 215 226 236 243 248 254 258 265 268 278 284 282 277 279 273 266 267 267 270 262 259 257 258
225 184 200 197 19 134 213 250 184 5 6 102 108 113 113 116 118 113 110 110 118 145 146 171 196 206 209 215 246 258 269 269 272 274 280 273 283 282 274 275 279 279 280 280 271 264 260 259 264
208 154 204 198 205 182 260 90 48 346 329 350 94 75 131 121 119 116 112 109 107 107 107 107 107 126 173 216 239 261 281 297 298 294 291 285 283 279 268 272 279 283 276 263 271 272 266 257 234
188 186 125 156 172 179 165 10 274 261 351 38 61 98 129 124 121 119 116 113 111 109 106 103 98 95 94 93 89 81 82 62 58 53 58 57 50 34 342 298 296 297 283 277 283 284 262 248 248
199 184 180 172 216 211 148 177 139 106 50 50 33 89 121 123 121 122 120 121 118 115 112 111 110 109 106 104 104 97 94 94 92 92 92 86 67 57 82 105 19 256 260 276 268 293 275 257 265